Weather in Krynychne

Ukraine / Luhansk Region     47°57′13″N   39°44′40″E
temp.,
°C
wind,
m/s
gust,
m/s
humid.,
%
clouds,
%
prec.,
mm/h
press.,
hPa
HPBL,
m
22 april, thu
thu2200:00+7sw49895 0.0 1020201
03:00+6sw37915 0.0 1021131
06:00+6ssw35945 0.0 1022102
09:00+12sw34705 0.0 1022562
12:00+15ssw335541 0.5 10221410
15:00+15sw3353100 2.0 10211446
18:00+14sw2259100 0.8 10211064
21:00+10w2276100 2.0 102217
23 april, fri
fri2300:00+10w2279100 0.0 102217
03:00+9sw2386100 0.0 102253
06:00+7sw35900 0.0 102398
09:00+12sw45641 0.0 1022580
12:00+15wsw44495 0.0 10211688
15:00+17wsw6644100 0.0 10192264
18:00+14sw575825 0.1 1019637
21:00+9sw4977100 0.1 1019198
24 april, sat
sat2400:00+9sw4975100 0.0 1018230
03:00+9sw51072100 0.0 1017324
06:00+8ssw4118625 0.0 1016376
09:00+12sw7107082 0.0 1015937
12:00+11w81173100 0.8 10151283
15:00+12w5114586 0.9 10152225
18:00+12w6104599 0.0 10151673
21:00+8w6125814 0.0 1018514
25 april, sun
sun2500:00+5w511626 0.0 1020659
03:00+3w4106747 0.0 1020365
06:00+2wnw410745 0.0 1021540
09:00+7nw565517 0.0 10221107
12:00+10wnw454099 0.0 10211884
15:00+11nw343697 0.0 10202086
18:00+11nnw1238100 0.0 10201906
21:00+8se2252100 0.0 102015
26 april, mon
mon2600:00+6wsw2265100 0.0 102033
03:00+5w2265100 0.0 101913
06:00+6wnw1162100 0.0 101810
09:00+10s2248100 0.0 1018632
12:00+12ssw4444100 0.0 10171868
15:00+13sw564185 0.0 10152255
18:00+11wsw796156 0.1 10151187
21:00+8nw587199 0.4 1017819